Terminal Aerodrome Forecast
Issued by NWS Salt Lake City, UT

Home | Current Version | Previous Version | Text Only | Print | Product List | Glossary On
Versions: 1 2 3 4 5 6 7 8 9 10 11 12 13 14 15 16 17 18 19 20 21 22 23 24 25 26 27 28 29 30 31 32 33 34 35 36 37 38 39 40 41 42 43 44 45 46 47 48 49 50
000
FTUS45 KSLC 250258 AAB
TAFSLC
TAF AMD
KSLC 250258Z 2503/2606 30012KT 5SM RA BR SCT020 OVC035
     FM250800 15007KT P6SM SCT070 BKN100
     FM251600 17005KT P6SM VCSH BKN050 OVC080
     FM252000 29008KT P6SM -RA BKN040 OVC060
     FM260200 34008KT 6SM RA SCT010 BKN025=

USA.gov is the U.S. government's official web portal to all federal, state and local government web resources and services.